Flag for Sudan Weather past 2 weeks in Khartoum, Sudan

Now
82 °F

Rain. Passing clouds.


Feels Like: 88 °F
Forecast: 81 / 98 °F
Wind: 23 mph from Southeast

Location: Khartoum Airport

Current Time: Aug 29, 2014 at 7:14:28 AM

Latest Report: Aug 29, 2014 at 6:00 AM


Visibility: N/A

Pressure: 29.89 "Hg

Humidity: 74%

Dew point: 73 °F

Location of KhartoumLocation

Historic Weather in Khartoum — Graph

°F

Khartoum temperature yesterday

Maximum temperature yesterday: 99 °F (at 3:00 PM)
Minimum temperature yesterday: 79 °F (at 7:00 AM)
Average temperature yesterday: 88 °F

Past Weeks' High & Low Weather Summary

 TemperatureHumidityPressure
High102 °F (Aug 16, 4:00 PM)83% (Aug 27, 6:00 AM)30.07 "Hg (Aug 27, 6:00 AM)
Low75 °F (Aug 27, 6:00 AM)24% (Aug 16, 6:00 PM)29.68 "Hg (Aug 22, 4:30 PM)
Average88 °F49%29.84 "Hg
* Reported Aug 14 5:00 AM — Aug 29 5:30 AM, Khartoum, Weather by CustomWeather, © 2014

Note: Actual official high and low records may vary slightly from our data, if they occured in-between our weather recording intervals... More about our weather records

Advertising

Khartoum weather history for previous 24 hours

 ConditionsComfort  
Time TempWeatherWind HumidityBarometerVisibility
5:30 AM
Aug 29
N/APassing clouds.16 mphN/A29.86 "HgN/A
5:00 AM84 °FClear.2 mph51%29.77 "Hg10 mi
4:30 AMN/AClear.6 mphN/A29.77 "Hg10 mi
4:00 AM84 °FClear.3 mph51%29.77 "Hg10 mi
3:30 AMN/AClear.5 mphN/A29.77 "Hg10 mi
3:00 AM86 °FClear.7 mph52%29.77 "Hg10 mi
2:30 AMN/AClear.7 mphN/A29.80 "Hg10 mi
2:00 AM86 °FClear.7 mph52%29.80 "Hg10 mi
1:30 AMN/AClear.7 mphN/A29.80 "Hg10 mi
1:00 AMN/APassing clouds.5 mphN/A29.83 "HgN/A
12:30 AMN/AClear.7 mphN/A29.83 "Hg10 mi
12:00 AM88 °FClear.No wind46%29.86 "Hg10 mi
11:30 PM
Aug 28
N/AClear.No windN/A29.86 "Hg10 mi
11:00 PM88 °FClear.3 mph49%29.86 "Hg10 mi
10:30 PMN/AClear.6 mphN/A29.86 "Hg10 mi
10:00 PM86 °FPassing clouds.8 mph52%29.83 "HgN/A
8:00 PM93 °FExtremely hot.13 mph41%29.77 "HgN/A
7:00 PM95 °FPassing clouds.8 mph39%29.77 "HgN/A
6:00 PM97 °FPassing clouds.13 mph34%29.74 "HgN/A
5:30 PMN/APassing clouds.13 mphN/A29.77 "HgN/A
5:00 PM99 °FPassing clouds.15 mph31%29.77 "HgN/A
4:30 PMN/APassing clouds.13 mphN/A29.77 "HgN/A
4:00 PM99 °FPassing clouds.12 mph31%29.77 "HgN/A
3:30 PMN/APassing clouds.13 mphN/A29.80 "HgN/A
3:00 PM99 °FPassing clouds.10 mph33%29.80 "HgN/A
2:30 PMN/A10 mphN/AN/AN/A
2:00 PM95 °FExtremely hot.13 mph39%29.80 "HgN/A
1:30 PMN/A13 mphN/AN/AN/A
1:00 PM95 °FSunny.18 mph39%29.83 "Hg10 mi
12:30 PMN/ASunny.13 mphN/A29.83 "Hg10 mi
12:00 PM93 °FSunny.13 mph36%29.83 "Hg10 mi
11:30 AMN/ASunny.14 mphN/A29.83 "Hg10 mi
11:00 AM91 °FSunny.9 mph41%29.83 "Hg10 mi
10:30 AMN/ASunny.12 mphN/A29.83 "Hg10 mi
10:00 AM88 °FSunny.10 mph55%29.83 "Hg10 mi
9:30 AMN/ASunny.10 mphN/A29.83 "Hg10 mi
9:00 AM84 °FSunny.9 mph66%29.86 "Hg10 mi
8:30 AMN/ASunny.7 mphN/A29.83 "Hg10 mi
8:00 AM81 °FSunny.8 mph70%29.83 "Hg10 mi
7:30 AMN/ASunny.6 mphN/A29.83 "Hg10 mi
7:00 AM79 °FSunny.6 mph79%29.83 "Hg10 mi
Weather by CustomWeather, © 2014

See weather overviewHow to use our weather pages